NOAA NWS Hourly Roundups by Site

Regional Weather Roundup for State College, PA

To Select Another Site Choose from List

Select Site:  

000
ASUS41 KCTP 231110
RWRCTP

REGIONAL WEATHER ROUNDUP
NATIONAL WEATHER SERVICE STATE COLLEGE PA
700 AM EDT SUN SEP 23 2018

Note: "fair" indicates few or no clouds below 12,000 feet with no
significant weather and/or obstructions to visibility.

* = STATION THAT DOES NOT REPORT PRECIPITATION /E.G. RAIN...SNOW...ETC/
    THUNDER OR FOG.

PAZ002>004-007>009-013>016-020>023-029>032-231200-
WESTERN PENNSYLVANIA

CITY           SKY/WX    TMP DP  RH WIND       PRES   REMARKS
ERIE           FAIR      50  46  86 CALM      30.22R
MEADVILLE      FAIR      44  44 100 NE5       30.20F
FRANKLIN*      FOG       47  46  97 N6        30.20F VSB 1/4
NEW CASTLE     FAIR      46  46 100 N3        30.19  FOG
BEAVER COUNTY  NOT AVBL
BUTLER*        FAIR      49  48  97 NE5       30.19R
PITTSBURGH INT CLOUDY    52  51  97 N7        30.16R
PITTSBURGH     FAIR      54  53  97 CALM      30.15F
INDIANA*       PTCLDY    54  52  94 E5        30.21S
LATROBE        CLOUDY    55  55 100 E12       30.16F
WASHINGTON CO* NOT AVBL
$$

PAZ004>006-010>012-017>019-024>028-033>037-041-042-045-046-049>053-231200-
CENTRAL PENNSYLVANIA

CITY           SKY/WX    TMP DP  RH WIND       PRES   REMARKS
BRADFORD       FOG       40  40 100 CALM      30.23R VSB 1/4
DUBOIS         FAIR      46  44  93 E6        30.19S
CLEARFIELD     FOG       49  49 100 NE5       30.21S VSB 3/4
JOHNSTOWN      CLOUDY    52  50  93 SE6       30.19R
ALTOONA        CLOUDY    55  52  89 CALM      30.21S
STATE COLLEGE  PTCLDY    50  50 100 CALM      30.22R
WILLIAMSPORT   MOCLDY    50  48  93 CALM      30.22S
SELINSGROVE    FAIR      53  51  93 NW3       30.23R
FT INDIANTOWN  FAIR      55  53  90 N5        30.21R
CAPITAL CITY   MOCLDY    60  53  77 CALM      30.21R
HARRISBURG     LGT RAIN  58  53  84 CALM      30.20R
YORK           FAIR      57  55  93 CALM      30.20S
$$

PAZ038>040-043-044-047-048-054-055-060>062-067>071-231200-
EASTERN PENNSYLVANIA

CITY           SKY/WX    TMP DP  RH WIND       PRES   REMARKS
SCRANTON       FAIR      50  48  93 CALM      30.24R
MOUNT POCONO   FAIR      50  45  83 E5        30.23S
ALLENTOWN      FAIR      57  52  83 NE7       30.21F
QUAKERTOWN*    SUNNY     55  54  94 CALM      30.21F
READING        LGT RAIN  57  56  96 N3        30.20R
LANCASTER      LGT RAIN  58  55  90 NE5       30.21R
COATESVILLE    DRIZZLE   55  54  94 CALM      30.22R
POTTSTOWN      LGT RAIN  55  54  96 VRB3      30.22F
BLUE BELL      FAIR      55  54  94 CALM      30.22S
DOYLESTOWN     LGT RAIN  56  53  90 CALM      30.19F
WILLOW GROVE   NOT AVBL
NORTH PHILA    LGT RAIN  61  54  77 NE6       30.21F
PHILADELPHIA   LGT RAIN  60  55  83 NE7       30.20S
$$


 

View Past Reports for State College, PA.

Products Courtesy of NOAA-NWS
NWS Information Parsing Script by Ken True at Saratoga Weather - Script by SE Lincoln Weather.